Regional Weather Roundup
Issued by NWS

Home | Current Version | Previous Version | Graphics & Text | Print | Product List | Glossary On
Versions: 1 2 3 4 5 6 7 8 9 10 11 12 13 14 15 16 17 18 19 20 21 22 23 24 25 26 27 28 29 30 31 32 33 34 35 36 37 38 39 40 41 42 43 44 45 46 47 48 49 50
466
ASUS43 KFSD 250910
RWRSD

WEATHER ROUNDUP FOR SOUTH DAKOTA
NATIONAL WEATHER SERVICE SIOUX FALLS SD
400 AM CDT MON JUL 25 2016

NOTE: "FAIR" INDICATES FEW OR NO CLOUDS BELOW 12,000 FEET WITH NO
SIGNIFICANT WEATHER AND/OR OBSTRUCTIONS TO VISIBILITY.


SDZ001>005-009-010-012>017-251000-
NORTHWEST AND NORTH CENTRAL SOUTH DAKOTA

CITY           SKY/WX    TMP DP  RH WIND       PRES   REMARKS
BUFFALO          N/A     66  50  56 S8        29.98S
FAITH            N/A     64  49  57 S16       30.05F
MOBRIDGE       CLEAR     66  57  72 SE9       30.02F
$$

SDZ012>016-024>037-041>051-057-063-072>074-251000-
SOUTHWEST AND SOUTH CENTRAL SOUTH DAKOTA

CITY           SKY/WX    TMP DP  RH WIND       PRES   REMARKS
RAPID CTY ARPT CLEAR     70  54  56 S10       30.09F
PIERRE         CLEAR     68  55  63 S7        30.04F
CUSTER         CLEAR     58  50  75 W3        30.25F
ELLSWORTH AFB  CLEAR     71  55  56 S12       30.07F
PHILIP         CLEAR     62  54  74 CALM      30.06F
PINE RIDGE     CLEAR     65  57  75 W5        30.14S
WINNER         FAIR      68  54  60 SW7       30.09F
$$

SDZ004>011-016>023-039-040-251000-
NORTHEAST SOUTH DAKOTA

CITY           SKY/WX    TMP DP  RH WIND       PRES   REMARKS
ABERDEEN       CLEAR     59  56  89 S5        30.04F
WATERTOWN      CLEAR     63  60  90 CALM      30.07F
BROOKINGS      CLEAR     62  59  90 CALM      30.08F
SISSETON         N/A     59  57  93 CALM      30.03R
$$

SDZ017-020-022-023-036>040-048>070-251000-
SOUTHEAST SOUTH DAKOTA

CITY           SKY/WX    TMP DP  RH WIND       PRES   REMARKS
SIOUX FALLS    CLEAR     63  58  83 CALM      30.07F
HURON          CLEAR     65  58  78 S5        30.05F
CHAMBERLAIN    CLEAR     62  59  90 CALM      30.07F
MITCHELL       CLEAR     67  60  78 S5        30.07F
YANKTON        CLEAR     61  55  82 N5        30.06F
$$

ABBREVIATIONS USED IN REMARKS
   TC - TEMPERATURE IN CELSIUS
  WCI - WIND CHILL INDEX
   HX - HEAT INDEX
  VSB - VISIBILITY





USA.gov is the U.S. government's official web portal to all federal, state and local government web resources and services.